Location: *
(45.4590°N, 16.3650°E)
Time: 06:56:48
(UTC+00:00)

STARLINK-1109 - Pass Details

Date: 17 January 2020
Orbit: 348 x 351 km, 53.0° (Epoch: 25 February)

Event Time Altitude Azimuth Distance (km) Brightness Sun altitude
Rises 17:28:08 0° 241° (WSW) 2,150 8.0 -18.7°
Reaches altitude 10° 17:30:09 10° 244° (WSW) 1,311 6.7 -19.0°
Enters shadow 17:32:52 68° 291° (WNW) 380 2.9 -19.5°
